GW6175 Weather Reports


time (UTC)temp
C
wind
direction
speed
KPH
gust
KPH
rain 1hr
cm
rain 24hr
cm
rain mn
cm
humidity
%
barometer
mb
20260508020037 23 0.0 0.0 0.00 0.00 0.00 15 873.2
20260508015017 23 0.0 0.0 0.00 0.00 0.00 15 873.0
20260508014037 23 0.0 0.0 0.00 0.00 0.00 14 873.2
20260508013017 23 0.0 0.0 0.00 0.00 0.00 14 873.2
20260508012017 25 0.0 0.0 0.00 0.00 0.00 14 873.1
20260508011059 25 0.0 0.0 0.00 0.00 0.00 13 873.2
20260508010018 26 0.0 0.0 0.00 0.00 0.00 13 873.2
20260508005017 26 0.0 0.0 0.00 0.00 0.00 13 873.0
20260508004016 26 0.0 0.0 0.00 0.00 0.00 13 873.3
20260508003017 26 0.0 0.0 0.00 0.00 0.00 13 873.2
20260508002017 26 0.0 0.0 0.00 0.00 0.00 13 873.0
20260508001037 25 0.0 0.0 0.00 0.00 0.00 14 873.1
20260508000038 26 0.0 0.0 0.00 0.00 0.00 13 873.0
20260507235017 26 0.0 0.0 0.00 0.00 0.00 14 873.0
20260507234017 25 0.0 0.0 0.00 0.00 0.00 13 873.2
20260507233037 25 0.0 0.0 0.00 0.00 0.00 13 873.0
20260507232017 25 0.0 0.0 0.00 0.00 0.00 13 873.1
20260507231017 25 0.0 0.0 0.00 0.00 0.00 13 873.3
20260507230017 25 0.0 0.0 0.00 0.00 0.00 14 873.1
20260507225017 25 0.0 0.0 0.00 0.00 0.00 14 873.2
20260507224017 25 0.0 0.0 0.00 0.00 0.00 14 873.4
20260507223017 26 0.0 0.0 0.00 0.00 0.00 14 873.4
20260507222017 26 0.0 0.0 0.00 0.00 0.00 15 873.6
20260507221017 25 0.0 0.0 0.00 0.00 0.00 15 873.7
20260507220039 25 0.0 0.0 0.00 0.00 0.00 15 873.7
20260507215017 25 0.0 0.0 0.00 0.00 0.00 16 874.0
20260507214037 25 0.0 0.0 0.00 0.00 0.00 16 874.1
20260507213017 25 0.0 0.0 0.00 0.00 0.00 17 874.2
20260507212016 24 0.0 0.0 0.00 0.00 0.00 17 874.6
20260507211017 24 0.0 0.0 0.00 0.00 0.00 17 874.8
20260507210017 24 0.0 0.0 0.00 0.00 0.00 17 875.0
20260507205017 24 0.0 0.0 0.00 0.00 0.00 17 874.9
20260507204016 23 0.0 0.0 0.00 0.00 0.00 17 875.2
20260507203018 24 0.0 0.0 0.00 0.00 0.00 17 875.4
20260507202016 23 0.0 0.0 0.00 0.00 0.00 18 875.5
20260507201037 25 0.0 0.0 0.00 0.00 0.00 17 875.5
20260507200018 23 0.0 0.0 0.00 0.00 0.00 19 875.6
20260507195017 22 0.0 0.0 0.00 0.00 0.00 19 876.1
20260507194016 22 0.0 0.0 0.00 0.00 0.00 20 876.1
20260507193018 22 0.0 0.0 0.00 0.00 0.00 20 876.2
20260507192016 21 0.0 0.0 0.00 0.00 0.00 21 876.5
20260507191016 21 0.0 0.0 0.00 0.00 0.00 21 876.7
20260507190016 21 0.0 0.0 0.00 0.00 0.00 21 876.8
20260507185016 21 0.0 0.0 0.00 0.00 0.00 21 877.1
20260507184017 21 0.0 0.0 0.00 0.00 0.00 21 877.2
20260507183016 21 0.0 0.0 0.00 0.00 0.00 21 877.5
20260507182016 20 0.0 0.0 0.00 0.00 0.00 22 877.4
20260507181016 20 0.0 0.0 0.00 0.00 0.00 23 877.7
20260507180036 19 0.0 0.0 0.00 0.00 0.00 24 877.9
20260507175016 20 0.0 0.0 0.00 0.00 0.00 23 877.8
20260507174038 19 0.0 0.0 0.00 0.00 0.00 24 878.0
20260507173016 19 0.0 0.0 0.00 0.00 0.00 24 878.1
20260507172016 18 0.0 0.0 0.00 0.00 0.00 25 878.2
20260507171016 18 0.0 0.0 0.00 0.00 0.00 24 878.2
20260507170016 18 0.0 0.0 0.00 0.00 0.00 24 878.4
20260507165017 17 0.0 0.0 0.00 0.00 0.00 23 878.4
20260507164016 18 0.0 0.0 0.00 0.00 0.00 23 878.5
20260507163036 17 0.0 0.0 0.00 0.00 0.00 24 878.7
20260507162036 17 0.0 0.0 0.00 0.00 0.00 24 878.7
20260507161015 16 0.0 0.0 0.00 0.00 0.00 23 878.8
20260507160017 16 0.0 0.0 0.00 0.00 0.00 25 878.9
20260507155015 16 0.0 0.0 0.00 0.00 0.00 25 878.8
20260507154015 16 0.0 0.0 0.00 0.00 0.00 24 878.9
20260507153101 16 0.0 0.0 0.00 0.00 0.00 24 879.1
20260507152016 16 0.0 0.0 0.00 0.00 0.00 25 879.2
20260507151016 15 0.0 0.0 0.00 0.00 0.00 27 879.0
20260507150015 15 0.0 0.0 0.00 0.00 0.00 27 879.2
20260507145015 15 0.0 0.0 0.00 0.00 0.00 30 879.3
20260507144017 14 0.0 0.0 0.00 0.00 0.00 34 879.3
20260507143016 13 0.0 0.0 0.00 0.00 0.00 39 879.3
20260507142016 13 0.0 0.0 0.00 0.00 0.00 45 879.3
20260507141018 12 0.0 0.0 0.00 0.00 0.00 46 879.3
20260507140039 12 0.0 0.0 0.00 0.00 0.00 48 879.4
20260507135019 11 0.0 0.0 0.00 0.00 0.00 51 879.3
20260507134018 10 0.0 0.0 0.00 0.00 0.00 54 879.2
20260507133017 10 0.0 0.0 0.00 0.00 0.00 55 879.2
20260507132038 10 0.0 0.0 0.00 0.00 0.00 57 879.2
20260507131038 10 0.0 0.0 0.00 0.00 0.00 58 879.0
20260507130017 8 0.0 0.0 0.00 0.00 0.00 60 878.8
20260507125017 8 0.0 0.0 0.00 0.00 0.00 62 878.7
20260507124018 7 0.0 0.0 0.00 0.00 0.00 63 878.6
20260507123038 7 0.0 0.0 0.00 0.00 0.00 65 878.6
20260507122038 7 0.0 0.0 0.00 0.00 0.00 65 878.5
20260507121037 7 0.0 0.0 0.00 0.00 0.00 65 878.5
20260507120018 7 0.0 0.0 0.00 0.00 0.00 65 878.4
20260507115018 7 0.0 0.0 0.00 0.00 0.00 65 878.4
20260507114017 7 0.0 0.0 0.00 0.00 0.00 66 878.6
20260507113018 7 0.0 0.0 0.00 0.00 0.00 66 878.7
20260507112018 7 0.0 0.0 0.00 0.00 0.00 67 878.6
20260507111037 6 0.0 0.0 0.00 0.00 0.00 67 878.6
20260507110018 7 0.0 0.0 0.00 0.00 0.00 65 878.5
20260507105017 7 0.0 0.0 0.00 0.00 0.00 64 878.4
20260507104037 7 0.0 0.0 0.00 0.00 0.00 64 878.3
20260507103016 8 0.0 0.0 0.00 0.00 0.00 63 878.4
20260507102017 8 0.0 0.0 0.00 0.00 0.00 63 878.4
20260507101019 8 0.0 0.0 0.00 0.00 0.00 63 878.4
20260507100037 8 0.0 0.0 0.00 0.00 0.00 63 878.3
20260507095022 8 0.0 0.0 0.00 0.00 0.00 63 878.2
20260507094017 8 0.0 0.0 0.00 0.00 0.00 63 878.4
20260507093017 8 0.0 0.0 0.00 0.00 0.00 62 878.3
20260507092017 8 0.0 0.0 0.00 0.00 0.00 62 878.4
20260507091039 9 0.0 0.0 0.00 0.00 0.00 61 878.5
20260507090018 9 0.0 0.0 0.00 0.00 0.00 61 878.5
20260507085016 9 0.0 0.0 0.00 0.00 0.00 60 878.3
20260507084017 10 0.0 0.0 0.00 0.00 0.00 60 878.3
20260507083017 10 0.0 0.0 0.00 0.00 0.00 59 878.3
20260507082017 10 0.0 0.0 0.00 0.00 0.00 58 878.3
20260507081017 10 0.0 0.0 0.00 0.00 0.00 56 878.4
20260507080038 10 0.0 0.0 0.00 0.00 0.00 56 878.2
20260507075016 11 0.0 0.0 0.00 0.00 0.00 55 878.3
20260507074017 11 0.0 0.0 0.00 0.00 0.00 53 878.2
20260507073038 11 0.0 0.0 0.00 0.00 0.00 51 878.1
20260507072016 11 0.0 0.0 0.00 0.00 0.00 49 878.0
20260507071017 12 0.0 0.0 0.00 0.00 0.00 47 878.0
20260507070016 12 0.0 0.0 0.00 0.00 0.00 46 877.9
20260507065016 12 0.0 0.0 0.00 0.00 0.00 45 877.9
20260507064017 12 0.0 0.0 0.00 0.00 0.00 45 877.7
20260507063016 12 0.0 0.0 0.00 0.00 0.00 44 877.6
20260507062016 13 0.0 0.0 0.00 0.00 0.00 43 877.6
20260507061017 13 0.0 0.0 0.00 0.00 0.00 42 877.7
20260507060017 13 0.0 0.0 0.00 0.00 0.00 42 877.4
20260507055018 13 0.0 0.0 0.00 0.00 0.00 42 877.3
20260507054031 13 0.0 0.0 0.00 0.00 0.00 41 877.2
20260507053039 14 0.0 0.0 0.00 0.00 0.00 41 877.1
20260507052016 14 0.0 0.0 0.00 0.00 0.00 41 876.9
20260507051016 14 0.0 0.0 0.00 0.00 0.00 41 876.9
20260507050016 14 0.0 0.0 0.00 0.00 0.00 41 876.9
20260507045016 15 0.0 0.0 0.00 0.00 0.00 40 876.7
20260507044017 15 0.0 0.0 0.00 0.00 0.00 40 876.7
20260507043016 15 0.0 0.0 0.00 0.00 0.00 39 876.5
20260507042017 15 0.0 0.0 0.00 0.00 0.00 38 876.3
20260507041042 15 0.0 0.0 0.00 0.00 0.00 37 876.3
20260507040016 16 0.0 0.0 0.00 0.00 0.00 37 875.9
20260507035017 16 0.0 0.0 0.00 0.00 0.00 37 875.9
20260507034018 16 0.0 0.0 0.00 0.00 0.00 36 875.7
20260507033016 17 0.0 0.0 0.00 0.00 0.00 35 875.6
20260507032042 17 0.0 0.0 0.00 0.00 0.00 34 875.4
20260507031035 18 0.0 0.0 0.00 0.00 0.00 32 875.3
20260507030019 18 0.0 0.0 0.00 0.00 0.00 31 874.9
20260507025019 19 0.0 0.0 0.00 0.00 0.00 29 874.8
20260507024017 20 0.0 0.0 0.00 0.00 0.00 26 874.8
20260507023017 20 0.0 0.0 0.00 0.00 0.00 21 874.2
20260507022039 21 0.0 0.0 0.00 0.00 0.00 21 874.2
20260507021019 21 0.0 0.0 0.00 0.00 0.00 20 874.1